Flag for Germany Weather past 2 weeks in Andernach, Rhineland-Palatinate, Germany

Now
64 °F

Mild.


Feels Like: 64 °F
Forecast: 54 / 74 °F
Wind: 6 mph from East

Location: Buechel

Current Time: Sep 17, 2014 at 11:54:49 PM

Latest Report: Sep 17, 2014 at 10:20 PM


Visibility: N/A

Pressure: 29.92 "Hg

Humidity: 73%

Dew point: 55 °F

Location of AndernachLocation

Historic Weather in Andernach — Graph

°F

Andernach temperature yesterday

Maximum temperature yesterday: 70 °F (at 4:20 PM)
Minimum temperature yesterday: 54 °F (at 4:20 AM)
Average temperature yesterday: 60 °F

Past Weeks' High & Low Weather Summary

 TemperatureHumidityPressure
High72 °F (Sep 5, 4:20 PM)100% (Sep 7, 4:20 AM)30.21 "Hg (Sep 7, 4:20 AM)
Low48 °F (Sep 12, 3:20 AM)52% (Sep 12, 3:20 PM)29.89 "Hg (Sep 17, 4:20 PM)
Average59 °F81%30.06 "Hg
* Reported Sep 2 10:20 PM — Sep 17 10:20 PM, Andernach, Weather by CustomWeather, © 2014

Note: Actual official high and low records may vary slightly from our data, if they occured in-between our weather recording intervals... More about our weather records

Advertising

Andernach weather history for previous 24 hours

 ConditionsComfort  
Time TempWeatherWind HumidityBarometerVisibility
10:20 PM
Sep 17
64 °FMild.6 mph73%29.92 "HgN/A
9:20 PM64 °FMild.6 mph73%29.92 "HgN/A
8:20 PM64 °FMild.6 mph73%29.92 "HgN/A
7:20 PM68 °FMild.3 mph64%29.89 "HgN/A
6:20 PM70 °FMild.6 mph60%29.89 "HgN/A
5:20 PM72 °FScattered clouds.8 mph57%29.89 "HgN/A
4:20 PM72 °FScattered clouds.7 mph61%29.89 "HgN/A
3:20 PM70 °FPassing clouds.7 mph64%29.92 "HgN/A
2:20 PM70 °FPassing clouds.6 mph64%29.92 "HgN/A
1:20 PM68 °FPassing clouds.8 mph69%29.92 "HgN/A
12:20 PM66 °FPassing clouds.7 mph73%29.92 "Hg6 mi
11:20 AM63 °FPassing clouds.7 mph83%29.95 "Hg5 mi
10:20 AM61 °FPassing clouds.8 mph88%29.95 "Hg4 mi
9:20 AM59 °FFog.8 mph88%29.95 "Hg3 mi
8:20 AM57 °FFog.7 mph88%29.95 "Hg3 mi
7:20 AM57 °FFog.7 mph88%29.95 "Hg3 mi
6:20 AM57 °FCool.7 mph88%29.95 "Hg5 mi
5:20 AM55 °FCool.5 mph94%29.95 "Hg5 mi
4:20 AM57 °FCool.7 mph88%29.95 "Hg5 mi
3:20 AM57 °FCool.6 mph88%29.95 "HgN/A
2:20 AM57 °FCool.5 mph88%29.95 "HgN/A
1:20 AM59 °FCool.5 mph88%29.95 "HgN/A
12:20 AM61 °FCool.6 mph83%29.98 "HgN/A
11:20 PM
Sep 16
61 °FCool.6 mph83%29.98 "HgN/A
Weather by CustomWeather, © 2014

See weather overviewHow to use our weather pages